Regional Weather Roundup
Issued by NWS

Home | Current Version | Previous Version | Text Only | Print | Product List | Glossary Off
Versions: 1 2 3 4 5 6 7 8 9 10 11 12 13 14 15 16 17 18 19 20 21 22 23 24 25 26 27 28 29 30 31 32 33 34 35 36 37 38 39 40 41 42 43 44 45 46 47 48 49 50

000
ASUS45 KTFX 080910
RWRMT
MONTANA REGIONAL WEATHER ROUNDUP
NATIONAL WEATHER SERVICE GREAT FALLS MT
200 AM MST THU DEC 08 2016

NOTE: "FAIR" INDICATES FEW OR NO CLOUDS BELOW 12000 FEET WITH NO
SIGNIFICANT WEATHER AND/OR OBSTRUCTIONS TO VISIBILITY.

MTZ001>007-043-081000-
WEST OF THE DIVIDE

CITY           SKY/WX    TMP DP  RH WIND       PRES   REMARKS
KALISPELL      CLEAR      2  -6  69 N13       30.46F WCI -15
MISSOULA       CLOUDY     9   4  80 CALM      30.43S
BUTTE          CLEAR      0  -6  76 CALM      30.26R
MULLAN PASS    CLOUDY    -1  -4  87 SE9G17    30.13S WCI -16
ANACONDA         N/A     -4  -9  77 S6        30.29S WCI -16
DEER LODGE       N/A      0  -6  78 S3        30.33F
EUREKA           N/A     -2  -8  78 CALM      30.54S VSB 1/4
HAMILTON         N/A     10   5  79 CALM      30.39S
LIBBY            N/A     10   7  85 CALM      30.48S
PLAINS           N/A     13   4  67 CALM      30.45F
RONAN            N/A     12   6  77 CALM      30.40F
$$

MTZ008-052>055-081000-
SOUTHWEST MONTANA

CITY           SKY/WX    TMP DP  RH WIND       PRES   REMARKS
BOZEMAN        CLOUDY     6   0  76 CALM      30.38S
DILLON         CLOUDY    -2  -8  76 S7        30.30S WCI -15
W YELLOWSTONE  CLOUDY    -9 -15  77 CALM      30.24S
ENNIS          MOCLDY     0  -6  78 CALM      30.33F
THREE FORKS      N/A      0 -73   2 CALM      30.34S
$$

MTZ009-010-012-014-046-048-049-054-081000-
EAST SLOPES AND CENTRAL MONTANA

CITY           SKY/WX    TMP DP  RH WIND       PRES   REMARKS
CUT BANK       CLEAR    -14 -19  79 NW5       30.49F
GREAT FALLS    CLOUDY    -2  -8  76 NE7       30.50S WCI -15
MALMSTROM AFB  CLOUDY    -3  -7  83 NE7       30.54S WCI -17
HELENA         CLOUDY     1  -6  72 W6        30.44S WCI -10
AUGUSTA        FLURRIES  -5  -8  85 E5        30.41S
BOWMANS CRNR   FLURRIES  -4  -7  87 NE7       30.40S WCI -18
CHOTEAU          N/A     -2  -8  78 MISG      30.49S
CONRAD           N/A     -8 -13  78 NW3       30.46F
RAYNESFORD     CLOUDY    -6 -11  79 SW1       30.46F
ULM            FLURRIES  -1  -5  81 N8        30.51S WCI -15
$$

MTZ011-013-016-021-045-047-050-051-081000-
NORTH CENTRAL MONTANA

CITY           SKY/WX    TMP DP  RH WIND       PRES   REMARKS
HAVRE          CLOUDY   -10 -15  78 CALM      30.65S
LEWISTOWN      CLOUDY   -12 -17  78 SE6       30.45S WCI -26
N BAR RANCH      N/A     -9 -18  64 CALM      30.44S
CHINOOK          N/A     -9 -15  77 CALM      30.68R
DENTON           N/A     -9 -13  82 S9        30.49S WCI -26
GEYSER         MOCLDY    -6 -11  79 W2        30.46S
GRASS RANGE      N/A     -6 -11  81 SW1       30.45S
JUDITH GAP     CLOUDY    -2  -7  78 S8        30.38F WCI -17
ROY              N/A     -6 -11  81 MISG      30.50S
STANFORD         N/A    -10 -14  80 W1        30.42S
WINIFRED         N/A     -7 -11  83 MISG      30.50S
$$

MTZ017>020-022>027-061-062-081000-
NORTHEAST MONTANA

CITY           SKY/WX    TMP DP  RH WIND       PRES   REMARKS
GLASGOW        MOCLDY    -3  -9  75 NW14      30.64R WCI -22
JORDAN           N/A     -9 -14  78 W5        30.62R
SIDNEY         CLEAR     -8 -13  78 NW5       30.65R
WOLF POINT     CLOUDY    -2  -8  76 SW6       30.68R WCI -14
PLENTYWOOD       N/A      0  -6  78 NW15      30.57S WCI -20
POPLAR           N/A      0  -8  71 W8        30.66S WCI -15
SCOBEY           N/A     -2 -12  62 W13       30.53R WCI -20
$$

MTZ028>42-056>058-081000-
SOUTHCENTRAL AND SOUTHEAST MONTANA

CITY           SKY/WX    TMP DP  RH WIND       PRES   REMARKS
BAKER          CLOUDY    -2  -7  79 W15       30.55R WCI -22
BILLINGS       MOCLDY     0  -6  76 E6        30.51S WCI -12
LIVINGSTON     CLOUDY     3  -2  79 E6        30.36F WCI  -8
MILES CITY     CLEAR     -4 -11  72 W7        30.63R WCI -18
BIG TIMBER     CLOUDY     0  -4  85 E3        30.42S
EKALAKA          N/A     -7 -15  68 SW7       30.41R WCI -21
FORSYTH          N/A      0  -8  71 CALM      30.62R
HARLOWTON      FLURRIES   1  -6  75 E6        30.42S WCI -11
LAUREL           N/A      1  -9  63 N3        30.43S
$$

REGIONAL REPORTS...DAKOTAS

CITY           SKY/WX    TMP DP  RH WIND       PRES   REMARKS
WILLISTON      CLOUDY    -1  -9  68 W9        30.62R WCI -16
MINOT          LGT SNOW   5   0  79 W24       30.51R WCI -17
DICKINSON      CLEAR     -6 -11  79 NW15      30.51R WCI -27
BEACH          CLOUDY    -2  -8  78 NW14      30.58S WCI -21
CROSBY         CLOUDY     0  -2  92 NW14      30.60R WCI -19
TIOGA          CLOUDY     0  -2  92 W16       30.55R WCI -21
WATFORD CITY   MOCLDY    -4  -9  77 W9        30.60S WCI -20
BISMARCK       CLOUDY     5   0  79 NW17G25   30.54R WCI -14
GRAND FORKS    LGT SNOW  17  12  80 NW22G29   30.34R WCI   0
FARGO          CLOUDY    17  11  77 NW24G33   30.33R WCI  -1
BUFFALO SD       N/A     -1  -7  75 NW15      30.44R WCI -21
RAPID CITY     CLEAR      0  -7  72 N12       30.51R WCI -17
$$

REGIONAL REPORTS...WYOMING/IDAHO/WASHINGTON

CITY           SKY/WX    TMP DP  RH WIND       PRES   REMARKS
GILLETTE       CLOUDY    -8 -11  86 CALM      30.45S
SHERIDAN       CLOUDY    -9 -16  71 CALM      30.48S
BUFFALO WY     CLOUDY    -2 -13  59 SW6       30.39S WCI -14
CODY           CLOUDY   -11 -16  78 S3        30.38R
YELLOWSTONE LA   N/A    -12 -15  86 W3        30.16F
IDAHO FALLS    CLEAR      3  -2  79 N5        30.33S
SALMON         CLOUDY     0  -6  78 SE3       30.37S
BOISE          MOCLDY    18  11  74 S13       30.33F WCI   5
SPOKANE        PTCLDY    16   7  67 NE8       30.37F WCI   5
$$

REGIONAL REPORTS...ALBERTA

CITY           SKY/WX    TMP DP  RH WIND       PRES   REMARKS
EDMONTON       CLEAR    -13 -20  70 N6        30.71S WCI -27
CALGARY        CRYSTALS -13 -18  77 NW2       30.52S
LETHBRIDGE     CLEAR    -18 -24  76 W7        30.60S WCI -35
MEDICINE HAT   CLEAR    -18 -24  76 SW3       30.67F
WATERTON GATE    N/A    -31 -36  75 CALM        N/A
CARDSTON         N/A    -20 -27  69 SW2         N/A
MILK RIVER       N/A    -17 -22  76 NW6         N/A  WCI -31
$$

REGIONAL REPORTS...SASKATCHEWAN

CITY           SKY/WX    TMP DP  RH WIND       PRES   REMARKS
SWIFT CURRENT  FLURRIES  -8 -11  84 W7        30.57R WCI -22
REGINA         MOCLDY    -6  -9  84 W9        30.59R WCI -22
SASKATOON      CRYSTALS  -6 -11  77 N5        30.67S
CYPRESS HILLS    N/A    -11 -18  70 NW3         N/A
ROCKGLEN         N/A     -8 -11  84 NW8         N/A  WCI -23
ASSINIBOIA       N/A    -11 -17  77 NW3         N/A
$$



USA.gov is the U.S. government's official web portal to all federal, state and local government web resources and services.